THY2KF LCEN-LTFM

Flight info

Callsign THY2KF
Flight time N/A
Altitude 36000
Route GIRNE DCT DOREN UA28 MUT UL619 OSVEL UB545 KFK UM855 SISPI
Aircraft A320/M-SDE3FGHIRWY/LB1

Departure

Time 2026-05-05 11:39
Airport Ercan International Airport (LCEN)

Arrival

Time N/A
Airport İstanbul Airport (LTFM)
Time Latitude Longitude Altitude Speed Heading
2026-05-05 11:08 35.14948 33.50394 393 ft 0 kts 200°
2026-05-05 11:29 35.14968 33.50403 393 ft 4 kts 197°
2026-05-05 11:30 35.14994 33.50411 393 ft 4 kts 187°
2026-05-05 11:30 35.15016 33.50412 393 ft 0 kts 171°
2026-05-05 11:33 35.15015 33.50412 393 ft 1 kts 169°
2026-05-05 11:33 35.15007 33.50421 393 ft 3 kts 137°
2026-05-05 11:33 35.14993 33.50452 393 ft 6 kts 116°
2026-05-05 11:34 35.14976 33.50506 393 ft 8 kts 109°
2026-05-05 11:34 35.14959 33.50580 393 ft 10 kts 86°
2026-05-05 11:34 35.15013 33.50645 393 ft 13 kts 27°
2026-05-05 11:34 35.15094 33.50688 394 ft 11 kts 33°
2026-05-05 11:35 35.15109 33.50776 395 ft 12 kts 100°
2026-05-05 11:35 35.15075 33.50889 393 ft 18 kts 112°
2026-05-05 11:35 35.15022 33.51053 394 ft 24 kts 111°
2026-05-05 11:35 35.14956 33.51256 393 ft 27 kts 111°
2026-05-05 11:36 35.14883 33.51478 393 ft 28 kts 112°
2026-05-05 11:36 35.14810 33.51700 394 ft 28 kts 111°
2026-05-05 11:36 35.14738 33.51920 394 ft 28 kts 111°
2026-05-05 11:36 35.14664 33.52143 392 ft 28 kts 112°
2026-05-05 11:37 35.14592 33.52364 394 ft 29 kts 111°
2026-05-05 11:37 35.14521 33.52574 392 ft 24 kts 111°
2026-05-05 11:37 35.14501 33.52737 390 ft 14 kts 82°
2026-05-05 11:37 35.14468 33.52803 390 ft 6 kts 184°
2026-05-05 11:38 35.14462 33.52765 390 ft 5 kts 289°
2026-05-05 11:38 35.14466 33.52749 390 ft 0 kts 290°
2026-05-05 11:38 35.14514 33.52603 392 ft 53 kts 292°
2026-05-05 11:38 35.14739 33.51917 393 ft 117 kts 292°
2026-05-05 11:39 35.15109 33.50839 504 ft 153 kts 295°
2026-05-05 11:39 35.15531 33.49630 1146 ft 155 kts 295°
2026-05-05 11:39 35.16008 33.48452 1875 ft 155 kts 301°
2026-05-05 11:39 35.16584 33.47330 2479 ft 158 kts 306°
2026-05-05 11:40 35.17253 33.46273 3128 ft 156 kts 311°
2026-05-05 11:40 35.17993 33.45307 3691 ft 158 kts 315°
2026-05-05 11:40 35.18836 33.44316 4015 ft 179 kts 315°
2026-05-05 11:40 35.19792 33.43184 4332 ft 204 kts 315°